Location: Newark
(54.6833°N, 25.2833°E)
Time: 02:25:27
(UTC+00:00)

A-11 Canister half - Pass Details

Date: 24 January 2021
Orbit: 1525 x 1684 km, 47.3° (Epoch: 05 March)

Event Time Altitude Azimuth Distance (km) Brightness Sun altitude
Rises 18:38:41 0° 282° (WNW) 4,752 12.6 -33.7°
Reaches altitude 10° 18:42:05 10° 273° (W) 3,788 11.8 -34.2°
Maximum altitude 18:50:19 34° 214° (SW) 2,449 10.1 -35.3°
Enters shadow 18:52:53 30° 187° (S) 2,626 10.0 -35.6°
